Flight Information

DEPARTURE
MOJAVE, CA
Elevation:
2801
Runways:
4/22 - 4747x60 - ASPH-E
8/26 - 7049x100 - ASPH-G
12/30 - 12503x200 - ASPH-E
Ground:
123.9
Tower:
127.6
DESTINATION
,
Elevation:
TPA:
1000 (est.)


6762.8 NM73° True-14° Var58° HDG

Flight Plan:
(click to file on line)

1. Type
2. Aircraft Identification
3. Aircraft Type / Special Equipment
4. True Airspeed
kts
5. Departure Airport
(ICAO code)
6. Arriving Airport
(ICAO code)
7. Cruising Altitude
ft
8. Alternate Airport
(ICAO code)
9. Route of Flight
10. Remarks


00:00:00 Departure ATIS: Destination ATIS:

Clearance Limit:
Route:
Altitude: Expect in minutes
Frequency:
Transponder: (7500 Hijack / 7600 Lost Comms / 7700 Emergency)


KMHV 261320Z AUTO 33006KT 10SM CLR 26/02 A3005 RMK A01
Time: 2022-06-26T13:20:00Z
1656251417
Winds: 330 @ 6 kts
Visibility: 10.0 sm
Clouds (AGL): CLR
Temperature: 26.0 C
Dew Point: 2.0 C
Pressure: 30.050198 in Hgbr


Notes:

Data extracted from FAA Digital Chart Supplement. Effective: 0901Z Thursday, 27 JAN 2022 to 0900z Thursday, 24 MAR 2022
Current ATIS data is provided courtisy of PilotEdge.